Simultaneous Nadir Overpasses (SNOs) Predictions

Prediction of SNOs between METOP-B and TERRA Satellite Orbit:

Table of predicted SNOs for the next 14.0 days since TLE Epoch: 12/22/2015
Index Date (METOP-B) Time (METOP-B) Lat,Lon (METOP-B) SZA (METOP-B ) Date (TERRA) Time (TERRA) Lat,Lon (TERRA) SZA (TERRA ) Distance(km) Time Diff (sec)
1 12/23/2015 12:32:13 -81.34,-140.32 72.54 12/23/2015 12:33:22 -81.34,-140.26 72.50 1.09 69
2 12/23/2015 13:22:52 81.35, 27.59 107.53 12/23/2015 13:22:48 81.35, 27.47 107.51 2.06 4
3 12/26/2015 08:06:33 -81.34, -73.81 72.63 12/26/2015 08:07:39 -81.34, -73.94 72.62 2.29 66
4 12/26/2015 08:57:13 81.34, 93.68 107.39 12/26/2015 08:57:05 81.34, 93.76 107.40 1.40 8
5 12/29/2015 03:40:55 -81.34, -7.74 72.83 12/29/2015 03:41:57 -81.33, -7.70 72.80 0.99 62
6 12
